[[{"header":{"parameterUnit":"m.s-1","parameterCategory":1,"la1":30.2991,"la2":30.254,"lo1":-89.0895,"lo2":-89.0444,"dy":0.0017,"dx":0.0017,"nx":28,"ny":28,"refTime":"2025-11-15T03:00:00:Z","depth":0,"parameterNumber":2,"parameterNumberName":"U-component_of_WINDS"},"data":[0,0,0,0,0,0,0,0,0,0,0,0,0,0,0,0,0,0,0,0,0,0,0,0,0,0,0,0,0,0,0,0,0,0,0,0,0,0,0,0,0,0,0,0,0,0,0,0,0,0,0,0,0,0,0,0,0,0,2.6121,2.6122,0,2.6226,2.6227,2.6228,2.6242,2.6241,2.624,2.6239,2.6349,2.6352,2.6356,0,0,0,0,0,0,0,0,0,0,0,0,0,2.5935,2.5938,2.6121,2.6122,2.6123,2.6226,2.6227,2.6229,2.6242,2.6241,2.624,2.6239,2.6347,2.6352,2.6357,0,0,0,0,0,0,0,0,0,0,0,0,0,2.6026,2.594,2.612,2.6142,2.6145,2.6225,2.6227,2.6229,2.6242,2.6241,2.6239,2.6238,2.6346,2.6351,2.6357,2.6423,0,0,2.6375,2.6377,0,0,0,0,0,0,0,0,2.602,2.6032,2.6138,2.6141,2.6144,2.6219,2.6202,2.6294,2.6243,2.6206,2.6239,2.6237,2.6307,2.6316,2.6339,2.6428,2.6433,2.6375,2.6379,2.6381,2.6383,0,0,0,0,0,0,0,2.6014,2.6028,2.6162,2.6139,2.6143,2.6148,2.6159,2.6219,2.6264,2.6209,2.621,2.6222,2.6308,2.6333,2.6342,2.6435,2.6375,2.638,2.6384,2.6386,2.6587,2.6589,0,0,0,0,0,0,2.6003,2.6023,2.6159,2.6165,2.6077,2.6153,2.6165,2.6197,2.6263,2.6271,2.6223,2.6222,2.6324,2.6335,2.6346,2.6429,2.6381,2.6387,2.639,2.6585,2.6587,2.6589,0,0,0,0,0,0,2.5999,2.6015,2.6155,2.6094,2.6113,2.6157,2.6193,2.62,2.6224,2.6274,2.6282,2.624,2.6323,2.6337,2.6404,2.6433,2.6389,2.6395,2.6583,2.6586,2.6588,2.6596,0,0,0,0,0,0,2.5994,2.6014,2.6038,2.6095,2.6116,2.6211,2.6195,2.6203,2.6234,2.6234,2.6292,2.63,2.6323,2.6396,2.641,2.644,2.6399,2.658,2.6584,2.6587,2.6593,2.6598,2.6603,0,0,0,0,0,2.5987,2.6036,2.6039,2.6056,2.6147,2.6212,2.6224,2.6249,2.6236,2.6262,2.6295,2.6298,2.6427,2.6402,2.6419,2.6451,2.6579,2.6583,2.6587,2.6591,2.6597,2.6603,0,0,0,0,0,0,2.5982,2.6044,2.6048,2.6116,2.6159,2.6214,2.6247,2.6255,2.6302,2.63,2.633,2.6343,2.6409,2.6437,2.6408,2.652,2.6502,2.651,2.6499,2.6506,2.6511,2.6503,2.6404,0,0,0,0,0,2.5988,2.6035,2.6087,2.6142,2.6164,2.6202,2.6231,2.6247,2.6292,2.631,2.6347,2.6392,2.6443,2.6476,2.6525,2.6597,2.6611,2.6628,2.6633,2.6637,2.6643,2.6686,2.6694,2.6603,2.6603,2.6603,0,0,2.6002,2.6042,2.607,2.6142,2.6177,2.6226,2.6217,2.6269,2.6306,2.6319,2.6384,2.6413,2.6465,2.6536,2.6569,2.6561,2.6672,2.6642,2.6644,2.6649,2.6691,2.67,2.6707,2.6606,2.6605,2.6605,0,0,2.6054,2.6088,2.6139,2.6174,2.6227,2.6253,2.6265,2.632,2.634,2.6406,2.6418,2.6463,2.6549,2.6587,2.6617,2.6686,2.6692,2.6701,2.6727,2.6769,2.6776,2.6782,2.6809,2.6818,2.6707,2.6707,2.6708,0,2.6065,2.6139,2.6164,2.6217,2.6249,2.6263,2.6316,2.6349,2.6416,2.6439,2.6429,2.654,2.6575,2.6656,2.6673,2.6696,2.6713,2.6695,2.6772,2.6779,2.6786,2.6812,2.6821,2.6708,2.6708,2.6708,2.6708,0,2.6151,2.6202,2.6237,2.6302,2.6338,2.639,2.6425,2.6459,2.6473,2.65,2.6569,2.6613,2.6673,2.6693,2.6706,2.6776,2.677,2.6766,2.6749,2.6795,2.682,2.683,2.671,2.6709,2.6709,2.6709,0,0,2.6201,2.628,2.6293,2.6323,2.6384,2.6425,2.6479,2.6537,2.6567,2.6613,2.666,2.6734,2.6732,2.6766,2.6784,2.682,2.6875,2.6812,2.6814,2.6824,2.6958,2.6961,2.6972,2.6879,2.6881,2.6882,2.6954,0,2.6261,2.6356,2.6382,2.6464,2.6513,2.6528,2.6576,2.6619,2.6647,2.6693,2.6724,2.6777,2.6768,2.679,2.6826,2.686,2.6902,2.6855,2.6925,2.6927,2.6913,2.6984,2.6988,2.7053,2.6963,2.6965,2.6966,0,2.6342,2.6391,2.6478,2.6535,2.6556,2.6598,2.6655,2.6699,2.675,2.6767,2.6807,2.6822,2.6881,2.686,2.6943,2.6911,2.6941,2.6963,2.6966,2.6974,2.695,2.6996,2.7074,2.7084,2.6981,2.698,2.6979,0,2.6372,2.6459,2.6523,2.6549,2.6616,2.6646,2.6675,2.6724,2.6758,2.6809,2.6832,2.6888,2.6919,2.6963,2.6994,2.6976,2.7075,2.7056,2.7093,2.7093,2.7114,2.7112,2.7199,2.7131,2.7131,2.7131,2.7131,0,2.6437,2.649,2.6538,2.6577,2.6638,2.6668,2.6728,2.6758,2.6802,2.6849,2.6865,2.6909,2.6946,2.6996,2.702,2.7087,2.71,2.7118,2.7124,2.7117,2.7115,2.7138,2.7135,2.7134,2.7133,2.7132,2.7132,0,2.6481,2.6514,2.6586,2.6644,2.666,2.6703,2.6753,2.6793,2.6822,2.6881,2.6897,2.6942,2.7002,2.7037,2.7111,2.7128,2.7202,2.7206,2.7185,2.7188,2.7223,2.722,2.7329,2.7346,2.7265,2.7266,2.7267,0,2.652,2.6562,2.6625,2.6658,2.6688,2.6739,2.6775,2.6807,2.6843,2.6905,2.6938,2.6999,2.7049,2.7143,2.7184,2.7242,2.7248,2.7282,2.7257,2.7249,2.7251,2.7248,2.7254,2.7286,2.7287,2.7288,2.7288,0,2.6587,2.6603,2.6653,2.671,2.6752,2.6798,2.6844,2.687,2.691,2.6951,2.7012,2.705,2.7128,2.7188,2.725,2.7282,2.7293,2.7296,2.7308,2.7302,2.7289,2.7298,2.7198,2.7293,2.7293,2.7292,2.7292,2.7292,2.6632,2.667,2.6721,2.6777,2.6816,2.6859,2.69,2.6934,2.6985,2.7051,2.7067,2.7131,2.7183,2.7268,2.7301,2.7354,2.7348,2.7365,2.7369,2.7373,2.7375,2.728,2.7365,2.7365,2.7365,2.7365,2.7365,0,2.6701,2.6735,2.6787,2.6851,2.6896,2.6901,2.6954,2.6991,2.7048,2.7095,2.7144,2.7216,2.7275,2.7321,2.7382,2.7416,2.7422,2.7431,2.7429,2.7437,2.7376,2.736,2.7425,2.7425,2.7425,2.7425,2.7425,2.7425,2.6743,2.6809,2.6831,2.6917,2.6951,2.7014,2.7044,2.7085,2.7123,2.7202,2.7252,2.7281,2.7329,2.7394,2.745,2.7462,2.7484,2.7493,2.7506,2.7448,2.7441,2.7435,2.742,2.7497,2.7497,2.7563,2.7564,2.7564]},{"header":{"parameterUnit":"m.s-1","parameterCategory":1,"la1":30.2991,"la2":30.254,"lo1":-89.0895,"lo2":-89.0444,"dy":0.0017,"dx":0.0017,"nx":28,"ny":28,"refTime":"2025-11-15T03:00:00:Z","depth":0,"parameterNumber":3,"parameterNumberName":"V-component_of_WINDS"},"data":[0,0,0,0,0,0,0,0,0,0,0,0,0,0,0,0,0,0,0,0,0,0,0,0,0,0,0,0,0,0,0,0,0,0,0,0,0,0,0,0,0,0,0,0,0,0,0,0,0,0,0,0,0,0,0,0,0,0,-0.0192,-0.0192,0,-0.024,-0.0241,-0.0241,-0.0249,-0.0249,-0.0248,-0.0248,-0.0299,-0.03,-0.0302,0,0,0,0,0,0,0,0,0,0,0,0,0,-0.0106,-0.0107,-0.0192,-0.0192,-0.0193,-0.024,-0.0241,-0.0242,-0.0249,-0.0249,-0.0248,-0.0248,-0.0298,-0.03,-0.0302,0,0,0,0,0,0,0,0,0,0,0,0,0,-0.0148,-0.0108,-0.0192,-0.0202,-0.0204,-0.024,-0.0241,-0.0242,-0.0249,-0.0249,-0.0248,-0.0247,-0.0297,-0.03,-0.0303,-0.0332,0,0,-0.0311,-0.0312,0,0,0,0,0,0,0,0,-0.0145,-0.0151,-0.02,-0.0202,-0.0203,-0.0238,-0.0229,-0.0272,-0.025,-0.0232,-0.0248,-0.0247,-0.0279,-0.0283,-0.0294,-0.0334,-0.0336,-0.0311,-0.0312,-0.0313,-0.0314,0,0,0,0,0,0,0,-0.0142,-0.0149,-0.0211,-0.0201,-0.0203,-0.0205,-0.021,-0.0237,-0.0259,-0.0234,-0.0234,-0.024,-0.028,-0.0291,-0.0295,-0.0337,-0.0311,-0.0313,-0.0315,-0.0316,-0.0403,-0.0404,0,0,0,0,0,0,-0.0137,-0.0146,-0.0209,-0.0212,-0.0172,-0.0207,-0.0213,-0.0228,-0.0258,-0.0262,-0.024,-0.024,-0.0287,-0.0292,-0.0297,-0.0333,-0.0313,-0.0316,-0.0317,-0.0402,-0.0403,-0.0404,0,0,0,0,0,0,-0.0136,-0.0143,-0.0207,-0.018,-0.0188,-0.0209,-0.0226,-0.0229,-0.024,-0.0263,-0.0267,-0.0248,-0.0287,-0.0293,-0.0323,-0.0335,-0.0317,-0.0319,-0.0402,-0.0403,-0.0404,-0.0406,0,0,0,0,0,0,-0.0133,-0.0142,-0.0154,-0.018,-0.0189,-0.0233,-0.0226,-0.023,-0.0245,-0.0245,-0.0272,-0.0276,-0.0287,-0.0319,-0.0325,-0.0338,-0.0322,-0.0401,-0.0402,-0.0403,-0.0405,-0.0407,-0.0408,0,0,0,0,0,-0.013,-0.0152,-0.0154,-0.0162,-0.0204,-0.0233,-0.0239,-0.0251,-0.0246,-0.0257,-0.0272,-0.0275,-0.0332,-0.0322,-0.0329,-0.0343,-0.04,-0.0402,-0.0403,-0.0404,-0.0406,-0.0408,0,0,0,0,0,0,-0.0128,-0.0156,-0.0158,-0.019,-0.0209,-0.0234,-0.025,-0.0253,-0.0275,-0.0274,-0.0288,-0.0294,-0.0323,-0.0336,-0.0324,-0.0373,-0.0366,-0.0369,-0.0363,-0.0366,-0.0368,-0.0365,-0.0324,0,0,0,0,0,-0.013,-0.0152,-0.0176,-0.0201,-0.021,-0.0228,-0.0241,-0.0249,-0.027,-0.0278,-0.0295,-0.0315,-0.0338,-0.0352,-0.0374,-0.0406,-0.0412,-0.0419,-0.0421,-0.0422,-0.0425,-0.0443,-0.0446,-0.041,-0.041,-0.041,0,0,-0.0137,-0.0155,-0.0168,-0.0201,-0.0217,-0.0239,-0.0235,-0.0259,-0.0275,-0.0282,-0.0311,-0.0324,-0.0347,-0.0378,-0.0392,-0.039,-0.0437,-0.0425,-0.0426,-0.0428,-0.0445,-0.0449,-0.0452,-0.0411,-0.0411,-0.0411,0,0,-0.0161,-0.0176,-0.0199,-0.0215,-0.0239,-0.025,-0.0256,-0.0281,-0.029,-0.0319,-0.0324,-0.0344,-0.0382,-0.0399,-0.0412,-0.0441,-0.0444,-0.0448,-0.0458,-0.0475,-0.0478,-0.0481,-0.0491,-0.0495,-0.045,-0.045,-0.045,0,-0.0166,-0.02,-0.0211,-0.0234,-0.0248,-0.0255,-0.0278,-0.0293,-0.0323,-0.0332,-0.0329,-0.0377,-0.0393,-0.0428,-0.0435,-0.0445,-0.0452,-0.0445,-0.0477,-0.0479,-0.0482,-0.0492,-0.0496,-0.0451,-0.0451,-0.0451,-0.045,0,-0.0205,-0.0228,-0.0244,-0.0272,-0.0288,-0.0311,-0.0326,-0.0341,-0.0347,-0.0358,-0.0388,-0.0407,-0.0433,-0.0442,-0.0448,-0.0478,-0.0475,-0.0474,-0.0467,-0.0486,-0.0496,-0.05,-0.0451,-0.0451,-0.0451,-0.0451,0,0,-0.023,-0.0263,-0.0269,-0.0282,-0.0308,-0.0326,-0.0349,-0.0374,-0.0387,-0.0407,-0.0427,-0.0459,-0.0458,-0.0473,-0.048,-0.0495,-0.0517,-0.0492,-0.0493,-0.0497,-0.0551,-0.0552,-0.0557,-0.0519,-0.052,-0.052,-0.0549,0,-0.0257,-0.0299,-0.0309,-0.0345,-0.0366,-0.0372,-0.0392,-0.041,-0.0422,-0.0441,-0.0454,-0.0477,-0.0473,-0.0482,-0.0497,-0.0511,-0.0528,-0.0509,-0.0538,-0.0539,-0.0533,-0.0562,-0.0564,-0.059,-0.0553,-0.0554,-0.0554,0,-0.0295,-0.0316,-0.0353,-0.0376,-0.0385,-0.0403,-0.0427,-0.0446,-0.0466,-0.0473,-0.049,-0.0496,-0.052,-0.0511,-0.0545,-0.0532,-0.0544,-0.0553,-0.0554,-0.0558,-0.0548,-0.0567,-0.0599,-0.0603,-0.056,-0.056,-0.0559,0,-0.031,-0.0347,-0.0374,-0.0385,-0.0412,-0.0425,-0.0437,-0.0456,-0.0471,-0.0491,-0.0501,-0.0524,-0.0536,-0.0554,-0.0566,-0.0559,-0.0599,-0.0591,-0.0606,-0.0606,-0.0616,-0.0615,-0.065,-0.0622,-0.0622,-0.0622,-0.0622,0,-0.034,-0.0363,-0.0381,-0.0398,-0.0424,-0.0435,-0.0461,-0.0473,-0.049,-0.0509,-0.0515,-0.0533,-0.0548,-0.0568,-0.0577,-0.0604,-0.061,-0.0616,-0.0619,-0.0616,-0.0616,-0.0625,-0.0624,-0.0623,-0.0623,-0.0622,-0.0622,0,-0.0362,-0.0375,-0.0405,-0.0428,-0.0434,-0.0452,-0.0472,-0.0489,-0.05,-0.0524,-0.053,-0.0548,-0.0571,-0.0585,-0.0615,-0.0621,-0.0651,-0.0652,-0.0644,-0.0645,-0.066,-0.0658,-0.0703,-0.0709,-0.0676,-0.0676,-0.0677,0,-0.0381,-0.0399,-0.0423,-0.0437,-0.0449,-0.047,-0.0484,-0.0496,-0.051,-0.0534,-0.0548,-0.0572,-0.0592,-0.0629,-0.0645,-0.0667,-0.067,-0.0684,-0.0673,-0.067,-0.0671,-0.067,-0.0672,-0.0686,-0.0686,-0.0686,-0.0687,0,-0.0414,-0.0419,-0.0439,-0.0461,-0.0478,-0.0496,-0.0515,-0.0525,-0.0539,-0.0556,-0.058,-0.0595,-0.0625,-0.0649,-0.0672,-0.0685,-0.0688,-0.0689,-0.0694,-0.0692,-0.0687,-0.0691,-0.065,-0.0689,-0.0689,-0.0688,-0.0688,-0.0688,-0.0435,-0.0451,-0.0471,-0.0493,-0.0507,-0.0524,-0.0541,-0.0553,-0.0573,-0.0599,-0.0604,-0.0629,-0.0649,-0.0681,-0.0694,-0.0714,-0.0711,-0.0718,-0.072,-0.0722,-0.0722,-0.0683,-0.0718,-0.0718,-0.0718,-0.0718,-0.0718,0,-0.0469,-0.0481,-0.0501,-0.0526,-0.0543,-0.0544,-0.0564,-0.0578,-0.0601,-0.0618,-0.0637,-0.0665,-0.0687,-0.0704,-0.0727,-0.074,-0.0742,-0.0746,-0.0745,-0.0748,-0.0723,-0.0717,-0.0743,-0.0743,-0.0743,-0.0743,-0.0743,-0.0743,-0.0488,-0.0515,-0.0522,-0.0556,-0.0569,-0.0593,-0.0605,-0.062,-0.0634,-0.0664,-0.0683,-0.0693,-0.071,-0.0734,-0.0755,-0.0759,-0.0768,-0.0772,-0.0776,-0.0753,-0.075,-0.0747,-0.0742,-0.0773,-0.0773,-0.08,-0.08,-0.08]}]]